星链-2329 (STARLINK-2329 )

导读 | 星芒AI

STARLINK-2329 是 SpaceX Starlink 卫星互联网项目中的一个低轨道卫星,属于第二代 Starlink 卫星星座的一部分。该卫星旨在通过提供高速、低延迟的互联网服务,增强全球网络覆盖,特别是偏远地区。它搭载先进通信设备,支持高频段传输,并具备自主变轨和避障能力。STARLINK-2329 的发射和运行有助于提升 Starlink 网络的整体性能与可靠性,推动全球宽带接入的普及。

基本信息
目录编号:
47873
目录名称:
STARLINK-2329
国际标识:
2021-021P
轨道中心:
EARTH
卫星名称:
星链-2329
卫星全名:
星链-2329 (STARLINK-2329 )
卫星状态:
在轨 (已飞行1691 天)
发射日期:
2021-03-14 UTC
国别 :
美国 (US)
星等 :
--
轨道信息
数据来源 国际轨道数据
星历时间: 2025-10-30T02:47:04+0800
12小时前
查看轨道信息
半长轴: 6925.337km
偏心率: 0.0001337
轨道倾角: 53.053°
近地点辐角 92.939°
升交点赤经 129.280°
平近点角 267.175°
近地点: 546.276km
远地点: 548.128km
周期: 95.592分钟
每日圈数: 15.064038
详细信息
固有亮度:
5
最大亮度:
2.5
卫星平台:
Starlink V1.0
覆盖范围:
全球
运营商:
太空探索技术公司
运营商所在国:
美国
制造商(研发单位):
太空探索技术公司
制造商所在国:
美国
使用方式:
暂无
卫星简介
星链(Starlink)计划是由太空探索技术公司(SpaceX)提出的一个巨型低轨卫星互联网星座项目,计划在2019年至2024年间在太空搭建由约1.2万颗卫星组成的“星链”网络,其中1584颗将部署在地球上空550千米处的近地轨道,并从2020年开始工作。该卫星仍在工作。
2D轨道图
3D轨道图
轨道高度分析图
轨道倾角分析图
轨道综合分析图
查看轨道综合分析图